Weather History for Cancun, Mexico

Change the Weather History Date:

Sunday, May 19, 2013

  Actual Average Record
Temperature  
Mean Temperature 84 °F -  
Max Temperature 87 °F 88 °F - ()
Min Temperature 80 °F 74 °F - ()
Cooling Degree Days 18    
Growing Degree Days 34 (Base 50)    
Moisture  
Dew Point 75 °F    
Average Humidity 76    
Maximum Humidity 84    
Minimum Humidity 62    
Precipitation  
Precipitation 0.00 in - - ()
Sea Level Pressure  
Sea Level Pressure 29.95 in    
Wind  
Wind Speed 10 mph ()    
Max Wind Speed 18 mph    
Max Gust Speed -    
Visibility 7.0 miles    
Events      
T = Trace of Precipitation, MM = Missing Value Source: Averaged Metar Reports

Daily Weather History Graph

Daily Weather History Graph

Search for Another Location

Airport:

Trip Planner

Search our weather history database for the weather conditions in past years. The results will help you decide how hot, cold, wet, or windy it might be!

Date:

Astronomy

May. 19, 2013 Rise Set
Actual Time 6:08 AM CDT 7:19 PM CDT
Civil Twilight 5:44 AM CDT 7:44 PM CDT
Nautical Twilight 5:15 AM CDT 8:12 PM CDT
Astronomical Twilight 4:46 AM CDT 8:41 PM CDT
Moon 2:04 PM CDT (5/19) 1:46 AM CDT (5/19)
Length of Visible Light 13h 59m
Length of Day
13h 11m
Waxing Gibbous, 65% of the Moon is Illuminated
May 19
Waxing Gibbous
May 24
Full
May 31
Last Quarter
Jun 8
New
Jun 16
First Quarter

Hourly Weather History & Observations

Time (CDT) Temp. Heat Index Dew Point Humidity Pressure Visibility Wind Dir Wind Speed Gust Speed Precip Events Conditions
12:48 AM 80.6 °F 86.2 °F 75.2 °F 84% 29.97 in 7.0 mi ESE 8.1 mph - N/A   Mostly Cloudy
1:46 AM 80.6 °F 86.2 °F 75.2 °F 84% 29.95 in 7.0 mi ESE 9.2 mph - N/A   Mostly Cloudy
2:40 AM 80.6 °F 86.2 °F 75.2 °F 84% 29.94 in 7.0 mi ESE 9.2 mph - N/A   Scattered Clouds
3:40 AM 80.6 °F 86.2 °F 75.2 °F 84% 29.93 in 7.0 mi ESE 8.1 mph - N/A   Scattered Clouds
4:45 AM 80.6 °F 86.2 °F 75.2 °F 84% 29.94 in 7.0 mi SE 6.9 mph - N/A   Scattered Clouds
5:45 AM 80.6 °F 85.4 °F 73.4 °F 79% 29.94 in 7.0 mi ESE 8.1 mph - N/A   Mostly Cloudy
6:47 AM 80.6 °F 85.4 °F 73.4 °F 79% 29.95 in 7.0 mi ESE 6.9 mph - N/A   Mostly Cloudy
7:44 AM 82.4 °F 88.2 °F 73.4 °F 74% 29.97 in 7.0 mi SE 11.5 mph - N/A   Mostly Cloudy
8:41 AM 84.2 °F 90.9 °F 73.4 °F 70% 29.99 in 7.0 mi SE 13.8 mph - N/A   Mostly Cloudy
9:42 AM 86.0 °F 93.4 °F 73.4 °F 66% 30.00 in 7.0 mi SE 13.8 mph - N/A   Mostly Cloudy
10:42 AM 87.8 °F 97.6 °F 75.2 °F 66% 29.99 in 7.0 mi SE 13.8 mph - N/A   Mostly Cloudy
11:41 AM 86.0 °F 93.4 °F 73.4 °F 66% 29.99 in 7.0 mi ESE 18.4 mph - N/A   Mostly Cloudy
12:46 PM 86.0 °F 93.4 °F 73.4 °F 66% 29.97 in 7.0 mi SE 13.8 mph - N/A   Mostly Cloudy
1:42 PM 87.8 °F 97.6 °F 75.2 °F 66% 29.96 in 7.0 mi SE 16.1 mph - N/A   Mostly Cloudy
2:44 PM 87.8 °F 95.6 °F 73.4 °F 62% 29.94 in 7.0 mi SE 15.0 mph - N/A   Mostly Cloudy
3:47 PM 84.2 °F 90.9 °F 73.4 °F 70% 29.93 in 7.0 mi SE 15.0 mph - N/A   Mostly Cloudy
4:43 PM 84.2 °F 92.3 °F 75.2 °F 74% 29.91 in 7.0 mi ESE 15.0 mph - N/A   Mostly Cloudy
5:42 PM 84.2 °F 92.3 °F 75.2 °F 74% 29.91 in 7.0 mi ESE 10.4 mph - N/A   Mostly Cloudy
6:43 PM 82.4 °F 89.5 °F 75.2 °F 79% 29.93 in 7.0 mi ESE 16.1 mph - N/A   Scattered Clouds
7:43 PM 82.4 °F 89.5 °F 75.2 °F 79% 29.92 in 7.0 mi SE 12.7 mph - N/A   Scattered Clouds
8:41 PM 80.6 °F 86.2 °F 75.2 °F 84% 29.94 in 7.0 mi ESE 10.4 mph - N/A   Partly Cloudy
9:48 PM 80.6 °F 86.2 °F 75.2 °F 84% 29.92 in 7.0 mi SE 8.1 mph - N/A   Partly Cloudy
10:47 PM 80.6 °F 86.2 °F 75.2 °F 84% 29.97 in 7.0 mi SE 11.5 mph - N/A   Scattered Clouds
11:46 PM 80.6 °F 86.2 °F 75.2 °F 84% 29.97 in 7.0 mi ESE 10.4 mph - N/A   Scattered Clouds